Погода в Симакове

Россия / Ивановская область     56°52′21″N   42°45′58″E
В апреле 2022 года жителям России запретили посещать сайт meteo.paraplan.net по решению Генеральной прокуратуры. Аудитория сайта уменьшилась в 10 раз. Владельцы сайта не видят смысла в поддержке погодного сервера в таких условиях. Сайт будет закрыт в октябре.
темп.,
°C
ветер,
м/с
пор.,
м/с
влажн.,
%
обл.,
%
осадки,
мм/ч
давл.,
гПа
погр.,
м
30 сентября, пт
пт3000:00+6ююв229681 0.0 101718
03:00+6юв259799 0.0 101896
06:00+8юв3997100 0.0 1018252
09:00+10юв389091 0.0 1019314
12:00+15ююв4778100 0.0 1018908
15:00+16ю4870100 0.1 10181149
18:00+13ююв2787100 0.0 1018173
21:00+11ююв311948 0.0 1019270
1 октября, сб
сб100:00+10ю3109667 0.0 1018269
03:00+11ююв3995100 0.2 1018349
06:00+11ю2699100 0.3 1018172
09:00+12ююв2697100 0.5 1017275
12:00+13ююв2795100 0.3 1016370
15:00+13ююв2999100 5.2 1015443
18:00+14ююв3998100 0.4 1013477
21:00+14ю41097100 1.1 1011578
2 октября, вс
вс200:00+13ююв3897100 0.0 1010402
03:00+13ююв41098100 0.7 1007381
06:00+13ю41198100 2.1 1006661
09:00+13юз5108533 2.8 1006963
12:00+11юз51181100 0.1 10071021
15:00+12юз5978100 0.2 10081040
18:00+11юз4979100 0.0 1009704
21:00+10ююз2483100 0.0 1009155
3 октября, пн
пн300:00+8ююв2288100 0.0 100919
03:00+8в3788100 0.0 1008161
06:00+10в51387100 0.0 1006387
09:00+13вюв41293100 0.1 1004427
12:00+17юв51380100 0.1 1004833
15:00+17ююв71462100 0.1 10031069
18:00+16юв71770100 0.6 10031278
21:00+14ю61486100 0.7 10051233
4 октября, вт
вт400:00+11ю51279100 0.1 1007988
03:00+10ю51279100 0.1 1009895
06:00+10ю51280100 0.0 1011965
09:00+11ю511746 0.1 10131219
12:00+13ююз6955100 0.0 10141588
15:00+12ю485852 0.0 10161484
18:00+10ююв411705 0.0 1018369
21:00+9ю412775 0.0 1018430